| time (UTC) | temp C | wind direction | speed KPH | gust KPH | rain 1hr cm | rain 24hr cm | rain mn cm | humidity % | barometer mb |
| 20260505123527 | 12 | 213 | 3.2 | 9.7 | 0.00 | 0.00 | 0.00 | 83 | 1014.5 |
| 20260505122525 | 12 | 234 | 1.6 | 4.8 | 0.00 | 0.00 | 0.00 | 83 | 1014.5 |
| 20260505121523 | 12 | 224 | 1.6 | 3.2 | 0.00 | 0.00 | 0.00 | 83 | 1014.5 |
| 20260505120521 | 12 | 184 | 1.6 | 3.2 | 0.00 | 0.00 | 0.00 | 83 | 1014.4 |
| 20260505115519 | 12 | 237 | 0.0 | 3.2 | 0.00 | 0.00 | 0.00 | 83 | 1014.3 |
| 20260505114519 | 12 | 204 | 0.0 | 1.6 | 0.00 | 0.00 | 0.00 | 83 | 1014.4 |
| 20260505113516 | 12 | 238 | 1.6 | 4.8 | 0.00 | 0.00 | 0.00 | 83 | 1014.4 |
| 20260505112615 | 12 | 210 | 3.2 | 6.4 | 0.00 | 0.00 | 0.00 | 83 | 1014.3 |
| 20260505111613 | 12 | 211 | 3.2 | 4.8 | 0.00 | 0.00 | 0.00 | 83 | 1014.3 |
| 20260505110611 | 12 | 264 | 0.0 | 4.8 | 0.00 | 0.00 | 0.00 | 83 | 1014.1 |
| 20260505101643 | 12 | 213 | 1.6 | 3.2 | 0.00 | 0.00 | 0.00 | 83 | 1014.0 |
| 20260505100601 | 12 | 215 | 1.6 | 3.2 | 0.00 | 0.00 | 0.00 | 84 | 1013.8 |
| 20260505095600 | 12 | 237 | 1.6 | 3.2 | 0.00 | 0.00 | 0.00 | 84 | 1013.8 |
| 20260505094558 | 12 | 214 | 3.2 | 9.7 | 0.00 | 0.00 | 0.00 | 84 | 1013.7 |
| 20260505093555 | 12 | 228 | 3.2 | 6.4 | 0.00 | 0.00 | 0.00 | 84 | 1013.7 |
| 20260505092554 | 12 | 197 | 1.6 | 6.4 | 0.00 | 0.00 | 0.00 | 84 | 1013.7 |
| 20260505091553 | 12 | 185 | 3.2 | 4.8 | 0.00 | 0.00 | 0.00 | 84 | 1013.6 |
| 20260505090552 | 12 | 173 | 0.0 | 3.2 | 0.00 | 0.00 | 0.00 | 85 | 1013.6 |
| 20260505085549 | 12 | 221 | 1.6 | 1.6 | 0.00 | 0.00 | 0.00 | 85 | 1013.4 |
| 20260505084548 | 12 | 230 | 1.6 | 4.8 | 0.00 | 0.00 | 0.00 | 86 | 1013.5 |
| 20260505083546 | 11 | 248 | 1.6 | 3.2 | 0.00 | 0.00 | 0.00 | 86 | 1013.4 |
| 20260505082544 | 11 | 214 | 1.6 | 3.2 | 0.00 | 0.00 | 0.00 | 86 | 1013.4 |
| 20260505081545 | 11 | 220 | 1.6 | 4.8 | 0.00 | 0.00 | 0.00 | 85 | 1013.5 |
| 20260505080540 | 11 | 247 | 3.2 | 9.7 | 0.00 | 0.00 | 0.00 | 85 | 1013.5 |
| 20260505075539 | 11 | 233 | 4.8 | 9.7 | 0.00 | 0.00 | 0.00 | 85 | 1013.3 |
| 20260505074537 | 11 | 210 | 1.6 | 4.8 | 0.00 | 0.00 | 0.00 | 85 | 1013.2 |
| 20260505073556 | 11 | 233 | 1.6 | 4.8 | 0.00 | 0.00 | 0.00 | 85 | 1013.0 |
| 20260505072534 | 11 | 240 | 4.8 | 11.3 | 0.00 | 0.00 | 0.00 | 84 | 1012.8 |
| 20260505071532 | 11 | 233 | 1.6 | 4.8 | 0.00 | 0.00 | 0.00 | 84 | 1012.8 |
| 20260505070530 | 11 | 229 | 3.2 | 9.7 | 0.00 | 0.00 | 0.00 | 83 | 1012.8 |
| 20260505065549 | 12 | 236 | 1.6 | 4.8 | 0.00 | 0.00 | 0.00 | 83 | 1012.8 |
| 20260505064527 | 12 | 237 | 1.6 | 6.4 | 0.00 | 0.00 | 0.00 | 83 | 1012.7 |
| 20260505063525 | 12 | 238 | 1.6 | 4.8 | 0.00 | 0.00 | 0.00 | 82 | 1012.5 |
| 20260505062523 | 12 | 246 | 1.6 | 3.2 | 0.00 | 0.00 | 0.00 | 82 | 1012.5 |
| 20260505061542 | 12 | 228 | 3.2 | 9.7 | 0.00 | 0.00 | 0.00 | 82 | 1012.3 |
| 20260505060520 | 12 | 252 | 3.2 | 9.7 | 0.00 | 0.00 | 0.00 | 81 | 1012.2 |
| 20260505055518 | 12 | 223 | 3.2 | 9.7 | 0.00 | 0.00 | 0.00 | 82 | 1012.1 |
| 20260505054517 | 12 | 259 | 4.8 | 12.9 | 0.00 | 0.00 | 0.00 | 81 | 1012.0 |
| 20260505053614 | 12 | 242 | 4.8 | 14.5 | 0.00 | 0.00 | 0.00 | 81 | 1012.0 |
| 20260505052613 | 13 | 255 | 6.4 | 16.1 | 0.00 | 0.00 | 0.00 | 80 | 1012.0 |
| 20260505051611 | 13 | 228 | 4.8 | 11.3 | 0.00 | 0.00 | 0.00 | 79 | 1012.0 |
| 20260505050630 | 13 | 243 | 3.2 | 11.3 | 0.00 | 0.00 | 0.00 | 78 | 1011.7 |
| 20260505041601 | 15 | 234 | 4.8 | 11.3 | 0.00 | 0.00 | 0.00 | 71 | 1011.3 |
| 20260505040619 | 15 | 235 | 4.8 | 6.4 | 0.00 | 0.00 | 0.00 | 70 | 1011.0 |
| 20260505035557 | 16 | 253 | 4.8 | 9.7 | 0.00 | 0.00 | 0.00 | 69 | 1011.1 |
| 20260505034556 | 16 | 255 | 4.8 | 12.9 | 0.00 | 0.00 | 0.00 | 67 | 1010.9 |
| 20260505033554 | 17 | 231 | 3.2 | 12.9 | 0.00 | 0.00 | 0.00 | 66 | 1010.7 |
| 20260505032553 | 17 | 244 | 6.4 | 11.3 | 0.00 | 0.00 | 0.00 | 64 | 1010.6 |
| 20260505031551 | 18 | 244 | 4.8 | 9.7 | 0.00 | 0.00 | 0.00 | 63 | 1010.5 |
| 20260505030549 | 18 | 254 | 4.8 | 11.3 | 0.00 | 0.00 | 0.00 | 61 | 1010.3 |
| 20260505025548 | 19 | 236 | 4.8 | 12.9 | 0.00 | 0.00 | 0.00 | 59 | 1010.1 |
| 20260505024546 | 20 | 275 | 4.8 | 9.7 | 0.00 | 0.00 | 0.00 | 58 | 1010.0 |
| 20260505023604 | 21 | 255 | 4.8 | 14.5 | 0.00 | 0.00 | 0.00 | 57 | 1009.9 |
| 20260505022542 | 21 | 241 | 6.4 | 11.3 | 0.00 | 0.00 | 0.00 | 56 | 1010.0 |
| 20260505021541 | 21 | 251 | 3.2 | 6.4 | 0.00 | 0.00 | 0.00 | 55 | 1009.9 |
| 20260505020559 | 21 | 250 | 6.4 | 12.9 | 0.00 | 0.00 | 0.00 | 55 | 1009.9 |
| 20260505015537 | 22 | 237 | 6.4 | 16.1 | 0.00 | 0.00 | 0.00 | 54 | 1009.8 |
| 20260505014535 | 22 | 247 | 8.0 | 14.5 | 0.00 | 0.00 | 0.00 | 53 | 1009.8 |
| 20260505013534 | 23 | 254 | 6.4 | 17.7 | 0.00 | 0.00 | 0.00 | 52 | 1009.9 |
| 20260505012552 | 23 | 262 | 4.8 | 11.3 | 0.00 | 0.00 | 0.00 | 52 | 1009.7 |
| 20260505011551 | 23 | 252 | 6.4 | 9.7 | 0.00 | 0.00 | 0.00 | 52 | 1009.8 |
| 20260505010528 | 23 | 274 | 4.8 | 9.7 | 0.00 | 0.00 | 0.00 | 51 | 1009.8 |
| 20260505005547 | 24 | 260 | 1.6 | 4.8 | 0.00 | 0.00 | 0.00 | 51 | 1009.8 |
| 20260505004525 | 24 | 250 | 3.2 | 4.8 | 0.00 | 0.00 | 0.00 | 51 | 1009.7 |
| 20260505003524 | 24 | 242 | 3.2 | 12.9 | 0.00 | 0.00 | 0.00 | 51 | 1009.8 |
| 20260505002542 | 24 | 241 | 6.4 | 11.3 | 0.00 | 0.00 | 0.00 | 50 | 1009.7 |
| 20260505001520 | 25 | 231 | 6.4 | 12.9 | 0.00 | 0.00 | 0.00 | 49 | 1009.7 |
| 20260505000539 | 25 | 268 | 4.8 | 11.3 | 0.00 | 0.00 | 0.00 | 50 | 1009.6 |
| 20260504235517 | 24 | 241 | 3.2 | 9.7 | 0.00 | 0.00 | 0.00 | 50 | 1009.7 |
| 20260504234616 | 24 | 240 | 3.2 | 11.3 | 0.00 | 0.00 | 0.00 | 51 | 1009.6 |
| 20260504233633 | 24 | 273 | 3.2 | 9.7 | 0.00 | 0.00 | 0.00 | 51 | 1009.6 |
| 20260504232612 | 24 | 237 | 4.8 | 12.9 | 0.00 | 0.00 | 0.00 | 51 | 1009.8 |
| 20260504231610 | 24 | 285 | 1.6 | 6.4 | 0.00 | 0.00 | 0.00 | 51 | 1009.9 |
| 20260504230608 | 24 | 315 | 1.6 | 9.7 | 0.00 | 0.00 | 0.00 | 51 | 1010.0 |
| 20260504225607 | 24 | 295 | 4.8 | 11.3 | 0.00 | 0.00 | 0.00 | 49 | 1010.1 |
| 20260504224605 | 25 | 258 | 3.2 | 17.7 | 0.00 | 0.00 | 0.00 | 50 | 1010.3 |
| 20260504223624 | 25 | 246 | 6.4 | 9.7 | 0.00 | 0.00 | 0.00 | 51 | 1010.2 |
| 20260504222601 | 25 | 281 | 1.6 | 6.4 | 0.00 | 0.00 | 0.00 | 49 | 1010.3 |
| 20260504221559 | 25 | 276 | 3.2 | 9.7 | 0.00 | 0.00 | 0.00 | 49 | 1010.4 |
| 20260504220558 | 25 | 238 | 6.4 | 14.5 | 0.00 | 0.00 | 0.00 | 49 | 1010.3 |
| 20260504215556 | 25 | 246 | 4.8 | 9.7 | 0.00 | 0.00 | 0.00 | 49 | 1010.5 |
| 20260504214615 | 25 | 258 | 8.0 | 12.9 | 0.00 | 0.00 | 0.00 | 50 | 1010.6 |
| 20260504213553 | 25 | 219 | 6.4 | 12.9 | 0.00 | 0.00 | 0.00 | 49 | 1010.7 |
| 20260504212551 | 25 | 245 | 6.4 | 11.3 | 0.00 | 0.00 | 0.00 | 49 | 1010.8 |
| 20260504211550 | 25 | 253 | 6.4 | 14.5 | 0.00 | 0.00 | 0.00 | 48 | 1010.7 |
| 20260504210548 | 25 | 259 | 3.2 | 9.7 | 0.00 | 0.00 | 0.00 | 49 | 1010.7 |
| 20260504205546 | 25 | 264 | 3.2 | 12.9 | 0.00 | 0.00 | 0.00 | 50 | 1010.8 |
| 20260504204544 | 25 | 227 | 4.8 | 12.9 | 0.00 | 0.00 | 0.00 | 50 | 1010.8 |
| 20260504203543 | 25 | 279 | 4.8 | 11.3 | 0.00 | 0.00 | 0.00 | 50 | 1010.8 |
| 20260504202601 | 24 | 256 | 4.8 | 11.3 | 0.00 | 0.00 | 0.00 | 51 | 1010.9 |
| 20260504201540 | 24 | 248 | 3.2 | 11.3 | 0.00 | 0.00 | 0.00 | 49 | 1011.0 |
| 20260504200537 | 24 | 264 | 1.6 | 9.7 | 0.00 | 0.00 | 0.00 | 49 | 1011.0 |
| 20260504195536 | 24 | 295 | 3.2 | 9.7 | 0.00 | 0.00 | 0.00 | 50 | 1011.1 |
| 20260504194534 | 23 | 253 | 3.2 | 9.7 | 0.00 | 0.00 | 0.00 | 51 | 1011.0 |
| 20260504193533 | 24 | 267 | 3.2 | 6.4 | 0.00 | 0.00 | 0.00 | 50 | 1011.1 |
| 20260504192531 | 24 | 217 | 3.2 | 9.7 | 0.00 | 0.00 | 0.00 | 51 | 1011.2 |
| 20260504191557 | 24 | 214 | 3.2 | 6.4 | 0.00 | 0.00 | 0.00 | 51 | 1011.2 |
| 20260504190527 | 24 | 238 | 4.8 | 11.3 | 0.00 | 0.00 | 0.00 | 52 | 1011.4 |
| 20260504185526 | 23 | 224 | 4.8 | 9.7 | 0.00 | 0.00 | 0.00 | 53 | 1011.5 |
| 20260504184544 | 23 | 248 | 3.2 | 11.3 | 0.00 | 0.00 | 0.00 | 54 | 1011.5 |
| 20260504183522 | 23 | 259 | 3.2 | 9.7 | 0.00 | 0.00 | 0.00 | 55 | 1011.7 |
| 20260504182541 | 22 | 218 | 6.4 | 11.3 | 0.00 | 0.00 | 0.00 | 57 | 1011.8 |
| 20260504181539 | 21 | 239 | 3.2 | 6.4 | 0.00 | 0.00 | 0.00 | 56 | 1011.7 |
| 20260504180517 | 21 | 244 | 1.6 | 9.7 | 0.00 | 0.00 | 0.00 | 58 | 1011.7 |
| 20260504174614 | 21 | 273 | 1.6 | 4.8 | 0.00 | 0.00 | 0.00 | 56 | 1011.7 |
| 20260504173613 | 21 | 275 | 3.2 | 9.7 | 0.00 | 0.00 | 0.00 | 57 | 1011.6 |
| 20260504172631 | 20 | 243 | 6.4 | 14.5 | 0.00 | 0.00 | 0.00 | 59 | 1011.6 |
| 20260504171630 | 20 | 293 | 1.6 | 4.8 | 0.00 | 0.00 | 0.00 | 59 | 1011.5 |
| 20260504170608 | 20 | 249 | 3.2 | 4.8 | 0.00 | 0.00 | 0.00 | 58 | 1011.5 |
| 20260504150547 | 24 | 235 | 1.6 | 4.8 | 0.00 | 0.00 | 0.00 | 49 | 1010.8 |
| 20260504140556 | 12 | 0.0 | 0.0 | 0.00 | 0.00 | 0.00 | 79 | 1010.4 | |
| 20260504130527 | 11 | 0.0 | 0.0 | 0.00 | 0.00 | 0.00 | 80 | 1009.8 |